Regional Weather Roundup
Issued by NWS Newport/Morehead, NC

Home | Current Version | Previous Version | Text Only | Print | Product List | Glossary On
Versions: 1 2 3 4 5 6 7 8 9 10 11 12 13 14 15 16 17 18 19 20 21 22 23 24 25 26 27 28 29 30 31 32 33 34 35 36 37 38 39 40 41 42 43 44 45 46 47 48 49 50
000
ASUS42 KMHX 050525
RWRMHX
WEATHER ROUNDUP FOR EASTERN NORTH CAROLINA
NATIONAL WEATHER SERVICE NEWPORT/MOREHEAD CITY NC
100 AM EDT SUN JUL 05 2015

NOTE: "FAIR" INDICATES FEW OR NO CLOUDS BELOW 12,000 FEET
WITH NO SIGNIFICANT WEATHER AND/OR OBSTRUCTIONS TO VISIBILITY

NCZ015>017-031-032-045>047-102-103-050600-
NORTH COAST

CITY           SKY/WX    TMP DP  RH WIND       PRES   REMARKS
EDENTON        PTCLDY    80  71  74 SW7       30.04S
ELIZABETH CITY MOCLDY    76  74  93 SW6       30.03R
KITTY HAWK     MOCLDY    79  71  76 SW8       30.03R
MANTEO         PTCLDY    77  74  90 SW8       30.05R

$$

NCZ045>047-081-094-103-104-050600-
CENTRAL COAST

CITY           SKY/WX    TMP DP  RH WIND       PRES   REMARKS
FRISCO         PTCLDY    78  75  90 SW15G21   30.07R
SWANQUARTER      N/A     81 N/A N/A SW12G18   30.00S

$$

NCZ095-097-098-100-101-050600-
SOUTHERN COAST

CITY           SKY/WX    TMP DP  RH WIND       PRES   REMARKS
BEAUFORT       PTCLDY    79  78  97 SW15      30.07S
CEDAR ISLAND     N/A     79 N/A N/A S7G18     30.09S
JACKSONVILLE   NOT AVBL
PINEY ISLAND   CLEAR    N/A N/A N/A SW12      30.06S
WILMINGTON     PTCLDY    80  74  81 SW9       30.07S


$$

NCZ011>013-027>030-043-044-078>080-089-090>093-098-050600-
COASTAL PLAIN

CITY           SKY/WX    TMP DP  RH WIND       PRES   REMARKS
AHOSKIE        MOCLDY   N/A N/A N/A CALM      30.04S
CLINTON        MOCLDY    77  73  89 CALM      30.06S
ELIZABETHTOWN  PTCLDY    77  73  87 S3        30.06S
GOLDSBORO      MOCLDY    74  72  91 S2        30.03S
GREENVILLE     HVY RAIN  72  72 100 W10G20    30.08R
HAVELOCK       CLEAR     79  74  84 SW9       30.07S
KENANSVILLE    PTCLDY    76  72  87 CALM      30.07R
KINSTON        PTCLDY    79  70  74 SW5       30.07R
NEW BERN       CLEAR     78  72  81 SW7       30.07S
RICHLANDS      CLEAR     75  70  83 S5        30.07S
ROCKY MOUNT    MOCLDY    75  69  81 S7        30.04R
WASHINGTON     PTCLDY    78  70  77 W8        30.06R
WHITEVILLE     MOCLDY    78  73  82 SW8       30.07R

$$

AMZ130-135-150-152-154-156-158-170-250-252-270-ANZ085-086-088-633-658-670-050600-
MARINE OBSERVATIONS

STATION/POSITION TIME  TEMP    WIND        PRES    WAVE   SWELL
                       AIR SEA DIR/SP/G            HT/PER HT/PER
                 (UTC) (F)     (DEG/KT/KT) (MB)    (FT/S) (FT/S)
CHESAPEAKE LIGHT 0500   76     310/ 14/ 15 1017.5
64 E VA BEACH    0450   78 76  280/ 14/ 16 1016.3    5/ 7   3/ 7
DUCK             0500   80 72  240/  8/ 11   N/A
2 E DUCK         0411      77                N/A     2/ 6
OREGON INLET     0500   80 81  220/ 13/ 15 1017.4
13E OREGON INLT  0500      73                N/A     4/ 5
HATTERAS CG      0500   78 79  230/ 12/ 16 1017.7
DIAMOND BUOY     0450   81 81  240/ 19/ 25 1017.4    6/ 6   2/14
CAPE LOOKOUT     0500   80     230/ 11/ 14 1018.2
BEAUFORT LAB     0500   80 80  230/  5/ 12 1017.6
30 SE NEW RVR IN NOT AVBL
27 SE WRIGHTSVLE 0500      80  240/ 14/ 17   N/A
5 SE WRIGHTSVLE  NOT AVBL
225 S CAPE HAT   0450   82 80  230/ 12/ 14 1021.8    5/ 7   3/ 7
41 SE CHARLESTON 0450   81 82  230/ 12/ 16 1019.1    3/ 8   2/ 8

$$



USA.gov is the U.S. government's official web portal to all federal, state and local government web resources and services.